SAS1817 EFHK-ESSA

Flight info

Callsign SAS1817
Flight time 0h 40m
Altitude 32000
Route ADIVO4N ADIVO Y365 POGOK DCT RUNGA N872 XILAN XILAN6P
Aircraft A320/M-SDE3FGHIRWY/LB1

Departure

Time 2026-05-07 18:22
Airport Helsinki Vantaa Airport (EFHK)

Arrival

Time 2026-05-07 19:02
Airport Stockholm-Arlanda Airport (ESSA)
Time Latitude Longitude Altitude Speed Heading
2026-05-07 17:57 60.31907 24.96617 167 ft 0 kts 137°
2026-05-07 18:10 60.31910 24.96611 167 ft 2 kts 137°
2026-05-07 18:10 60.31922 24.96589 167 ft 2 kts 137°
2026-05-07 18:10 60.31934 24.96565 167 ft 2 kts 146°
2026-05-07 18:10 60.31947 24.96541 167 ft 2 kts 86°
2026-05-07 18:11 60.31944 24.96517 167 ft 0 kts 34°
2026-05-07 18:12 60.31946 24.96524 167 ft 0 kts 52°
2026-05-07 18:12 60.31954 24.96541 167 ft 8 kts 46°
2026-05-07 18:13 60.32026 24.96693 166 ft 17 kts 47°
2026-05-07 18:13 60.32095 24.96844 167 ft 9 kts 44°
2026-05-07 18:13 60.32145 24.96845 166 ft 8 kts 336°
2026-05-07 18:13 60.32217 24.96764 165 ft 15 kts 330°
2026-05-07 18:14 60.32288 24.96682 167 ft 3 kts 330°
2026-05-07 18:14 60.32321 24.96644 169 ft 14 kts 330°
2026-05-07 18:14 60.32452 24.96490 174 ft 27 kts 330°
2026-05-07 18:14 60.32617 24.96300 173 ft 28 kts 330°
2026-05-07 18:15 60.32791 24.96099 173 ft 29 kts 330°
2026-05-07 18:15 60.32931 24.95935 178 ft 22 kts 330°
2026-05-07 18:15 60.33059 24.95780 181 ft 21 kts 326°
2026-05-07 18:15 60.33169 24.95586 181 ft 19 kts 317°
2026-05-07 18:16 60.33189 24.95362 181 ft 19 kts 241°
2026-05-07 18:16 60.33115 24.95114 178 ft 22 kts 255°
2026-05-07 18:16 60.33113 24.94808 181 ft 22 kts 272°
2026-05-07 18:16 60.33115 24.94718 183 ft 0 kts 272°
2026-05-07 18:19 60.33117 24.94640 190 ft 5 kts 272°
2026-05-07 18:19 60.33119 24.94555 188 ft 12 kts 272°
2026-05-07 18:20 60.33103 24.94365 199 ft 14 kts 233°
2026-05-07 18:20 60.33086 24.94326 193 ft 0 kts 228°
2026-05-07 18:21 60.33085 24.94323 193 ft 2 kts 228°
2026-05-07 18:21 60.32994 24.94124 196 ft 51 kts 227°
2026-05-07 18:21 60.32594 24.93243 179 ft 116 kts 227°
2026-05-07 18:21 60.31926 24.91780 201 ft 163 kts 227°
2026-05-07 18:22 60.31178 24.90077 818 ft 161 kts 229°
2026-05-07 18:22 60.30691 24.88944 1297 ft 162 kts 232°
2026-05-07 18:22 60.30152 24.86023 1882 ft 182 kts 271°
2026-05-07 18:22 60.30467 24.83419 2169 ft 205 kts 295°
2026-05-07 18:23 60.31094 24.80646 2575 ft 230 kts 295°
2026-05-07 18:23 60.31710 24.77527 3147 ft 247 kts 283°
2026-05-07 18:23 60.31769 24.74008 3993 ft 255 kts 269°
2026-05-07 18:23 60.31682 24.70415 4904 ft 258 kts 269°
2026-05-07 18:24 60.31587 24.66770 5805 ft 262 kts 269°
2026-05-07 18:24 60.31492 24.63072 6683 ft 266 kts 269°
2026-05-07 18:24 60.31400 24.59333 7548 ft 268 kts 269°
2026-05-07 18:24 60.31309 24.55561 8449 ft 270 kts 268°
2026-05-07 18:25 60.31215 24.51767 9369 ft 272 kts 268°
2026-05-07 18:25 60.31120 24.47953 10240 ft 274 kts 268°
2026-05-07 18:25 60.31020 24.43981 10599 ft 295 kts 268°
2026-05-07 18:25 60.30910 24.39713 10949 ft 313 kts 268°
2026-05-07 18:26 60.30791 24.35286 11538 ft 322 kts 268°
2026-05-07 18:26 60.30665 24.30623 11714 ft 343 kts 268°
2026-05-07 18:26 60.30373 24.25787 12232 ft 351 kts 260°
2026-05-07 18:26 60.29896 24.20937 12925 ft 354 kts 260°
2026-05-07 18:27 60.29399 24.16068 13657 ft 356 kts 260°
2026-05-07 18:27 60.28891 24.11181 14362 ft 356 kts 260°
2026-05-07 18:27 60.28377 24.06301 15044 ft 356 kts 260°
2026-05-07 18:27 60.27859 24.01418 15678 ft 357 kts 260°
2026-05-07 18:28 60.27339 23.96516 16297 ft 358 kts 259°
2026-05-07 18:28 60.26818 23.91597 16911 ft 360 kts 260°
2026-05-07 18:28 60.26295 23.86656 17521 ft 361 kts 259°
2026-05-07 18:28 60.25770 23.81703 18111 ft 363 kts 259°
2026-05-07 18:29 60.25240 23.76732 18652 ft 364 kts 259°
2026-05-07 18:29 60.24713 23.71800 19133 ft 366 kts 259°
2026-05-07 18:29 60.24175 23.66790 19628 ft 367 kts 259°
2026-05-07 18:29 60.23633 23.61766 20101 ft 368 kts 259°
2026-05-07 18:30 60.23088 23.56713 20582 ft 370 kts 259°
2026-05-07 18:30 60.22540 23.51646 21052 ft 372 kts 259°
2026-05-07 18:30 60.21986 23.46558 21508 ft 373 kts 259°
2026-05-07 18:30 60.21429 23.41453 21945 ft 375 kts 259°
2026-05-07 18:31 60.20866 23.36321 22379 ft 376 kts 258°
2026-05-07 18:31 60.20301 23.31179 22834 ft 378 kts 259°
2026-05-07 18:31 60.19731 23.26009 23257 ft 380 kts 259°
2026-05-07 18:32 60.18572 23.15603 23933 ft 384 kts 258°
2026-05-07 18:32 60.17981 23.10339 24194 ft 388 kts 258°
2026-05-07 18:32 60.17382 23.05036 24488 ft 390 kts 258°
2026-05-07 18:32 60.16778 22.99709 24792 ft 392 kts 258°
2026-05-07 18:33 60.16173 22.94363 25092 ft 394 kts 258°
2026-05-07 18:33 60.15565 22.88988 25381 ft 396 kts 258°
2026-05-07 18:33 60.14951 22.83588 25665 ft 398 kts 258°
2026-05-07 18:33 60.14332 22.78168 25944 ft 399 kts 258°
2026-05-07 18:34 60.13704 22.72726 26226 ft 401 kts 258°
2026-05-07 18:34 60.13073 22.67265 26515 ft 403 kts 258°
2026-05-07 18:34 60.12441 22.61778 26791 ft 405 kts 258°
2026-05-07 18:34 60.11812 22.56347 27045 ft 406 kts 258°
2026-05-07 18:35 60.11158 22.50754 27308 ft 408 kts 258°
2026-05-07 18:35 60.10508 22.45213 27586 ft 409 kts 258°
2026-05-07 18:35 60.09851 22.39650 27825 ft 411 kts 258°
2026-05-07 18:35 60.09188 22.34077 28133 ft 411 kts 258°
2026-05-07 18:36 60.08527 22.28514 28500 ft 410 kts 258°
2026-05-07 18:36 60.07873 22.23039 28863 ft 409 kts 258°
2026-05-07 18:36 60.07211 22.17509 29226 ft 408 kts 258°
2026-05-07 18:36 60.06547 22.11981 29562 ft 407 kts 258°
2026-05-07 18:37 60.05885 22.06469 29817 ft 408 kts 258°
2026-05-07 18:37 60.05218 22.00932 30108 ft 409 kts 258°
2026-05-07 18:37 60.04550 21.95407 30411 ft 409 kts 258°
2026-05-07 18:37 60.03875 21.89885 30690 ft 408 kts 258°
2026-05-07 18:38 60.03198 21.84370 30951 ft 409 kts 258°
2026-05-07 18:38 60.02519 21.78847 31211 ft 409 kts 258°
2026-05-07 18:38 60.01839 21.73328 31477 ft 409 kts 258°
2026-05-07 18:38 60.01155 21.67810 31767 ft 409 kts 258°
2026-05-07 18:39 60.00468 21.62297 32045 ft 409 kts 258°
2026-05-07 18:39 59.99781 21.56788 32150 ft 409 kts 258°
2026-05-07 18:39 59.99092 21.51277 32167 ft 409 kts 258°
2026-05-07 18:40 59.97703 21.40267 32166 ft 409 kts 258°
2026-05-07 18:40 59.96308 21.29270 32165 ft 409 kts 258°
2026-05-07 18:41 59.94900 21.18278 32167 ft 409 kts 258°
2026-05-07 18:41 59.93481 21.07304 32169 ft 409 kts 258°
2026-05-07 18:42 59.92053 20.96326 32171 ft 409 kts 258°
2026-05-07 18:42 59.90621 20.85366 32173 ft 408 kts 258°
2026-05-07 18:43 59.89186 20.74470 31744 ft 404 kts 258°
2026-05-07 18:43 59.88470 20.69053 30854 ft 405 kts 258°
2026-05-07 18:43 59.87752 20.63617 29924 ft 406 kts 258°
2026-05-07 18:43 59.87033 20.58172 28849 ft 407 kts 258°
2026-05-07 18:44 59.86307 20.52717 27720 ft 410 kts 258°
2026-05-07 18:44 59.85569 20.47212 26566 ft 413 kts 257°
2026-05-07 18:44 59.84823 20.41671 25537 ft 415 kts 257°
2026-05-07 18:44 59.84085 20.36236 25139 ft 401 kts 257°
2026-05-07 18:45 59.83363 20.30937 24502 ft 394 kts 257°
2026-05-07 18:45 59.82652 20.25715 23833 ft 389 kts 257°
2026-05-07 18:45 59.81949 20.20549 23057 ft 386 kts 257°
2026-05-07 18:45 59.81249 20.15425 22300 ft 382 kts 257°
2026-05-07 18:46 59.80787 20.12063 21819 ft 380 kts 257°
2026-05-07 18:46 59.80091 20.07016 21105 ft 377 kts 257°
2026-05-07 18:46 59.79397 20.01996 20320 ft 376 kts 257°
2026-05-07 18:46 59.78479 19.95374 19391 ft 375 kts 257°
2026-05-07 18:47 59.77787 19.90405 18746 ft 372 kts 257°
2026-05-07 18:47 59.77322 19.87066 18300 ft 371 kts 257°
2026-05-07 18:47 59.76634 19.82155 17581 ft 368 kts 257°
2026-05-07 18:47 59.75948 19.77272 16886 ft 367 kts 257°
2026-05-07 18:48 59.75263 19.72409 16216 ft 365 kts 257°
2026-05-07 18:48 59.74581 19.67572 15561 ft 364 kts 257°
2026-05-07 18:48 59.73901 19.62758 14926 ft 362 kts 257°
2026-05-07 18:48 59.73219 19.57956 14305 ft 361 kts 257°
2026-05-07 18:49 59.72538 19.53173 13659 ft 360 kts 257°
2026-05-07 18:49 59.71859 19.48409 13011 ft 358 kts 256°
2026-05-07 18:49 59.71184 19.43679 12406 ft 356 kts 258°
2026-05-07 18:49 59.70940 19.38857 12177 ft 352 kts 276°
2026-05-07 18:50 59.71200 19.34162 12113 ft 335 kts 278°
2026-05-07 18:50 59.71478 19.29698 11698 ft 328 kts 278°
2026-05-07 18:50 59.71767 19.25088 10699 ft 338 kts 278°
2026-05-07 18:50 59.72059 19.20435 9973 ft 340 kts 278°
2026-05-07 18:51 59.72347 19.15796 9281 ft 338 kts 278°
2026-05-07 18:51 59.72632 19.11183 8591 ft 337 kts 278°
2026-05-07 18:51 59.72915 19.06597 7914 ft 335 kts 278°
2026-05-07 18:51 59.73196 19.02021 7342 ft 334 kts 278°
2026-05-07 18:52 59.73476 18.97442 7169 ft 335 kts 278°
2026-05-07 18:52 59.73753 18.92913 7177 ft 336 kts 278°
2026-05-07 18:52 59.74044 18.88255 7175 ft 332 kts 280°
2026-05-07 18:52 59.74463 18.83859 6893 ft 318 kts 283°
2026-05-07 18:53 59.74910 18.79608 6451 ft 312 kts 283°
2026-05-07 18:53 59.75350 18.75464 5886 ft 311 kts 283°
2026-05-07 18:53 59.75790 18.71360 5701 ft 294 kts 283°
2026-05-07 18:53 59.76210 18.67474 5137 ft 287 kts 283°
2026-05-07 18:54 59.76636 18.63572 4999 ft 290 kts 283°
2026-05-07 18:54 59.77062 18.59651 5026 ft 291 kts 283°
2026-05-07 18:54 59.77491 18.55725 5019 ft 291 kts 283°
2026-05-07 18:54 59.77921 18.51793 5020 ft 291 kts 283°
2026-05-07 18:55 59.78347 18.47884 4870 ft 284 kts 283°
2026-05-07 18:55 59.78741 18.44213 4628 ft 262 kts 283°
2026-05-07 18:55 59.79119 18.40700 4148 ft 259 kts 283°
2026-05-07 18:55 59.79502 18.37222 3744 ft 257 kts 283°
2026-05-07 18:56 59.79890 18.33750 3303 ft 257 kts 283°
2026-05-07 18:56 59.80213 18.30255 2847 ft 258 kts 278°
2026-05-07 18:56 59.80479 18.26730 2531 ft 258 kts 278°
2026-05-07 18:56 59.80745 18.23180 2516 ft 261 kts 278°
2026-05-07 18:57 59.81006 18.19635 2516 ft 253 kts 278°
2026-05-07 18:57 59.81252 18.16294 2517 ft 237 kts 278°
2026-05-07 18:57 59.81488 18.13098 2514 ft 232 kts 278°
2026-05-07 18:57 59.81720 18.09936 2516 ft 231 kts 278°
2026-05-07 18:58 59.81925 18.06780 2519 ft 230 kts 270°
2026-05-07 18:58 59.81542 18.03764 2519 ft 227 kts 236°
2026-05-07 18:58 59.80415 18.01727 2522 ft 214 kts 201°
2026-05-07 18:58 59.79032 18.01029 2512 ft 199 kts 188°
2026-05-07 18:59 59.77712 18.00557 2537 ft 188 kts 189°
2026-05-07 18:59 59.76441 18.00098 2430 ft 184 kts 189°
2026-05-07 18:59 59.75186 17.99642 2221 ft 182 kts 189°
2026-05-07 18:59 59.73948 17.99190 1985 ft 180 kts 189°
2026-05-07 19:00 59.72732 17.98746 1740 ft 172 kts 189°
2026-05-07 19:00 59.71614 17.98337 1521 ft 156 kts 188°
2026-05-07 19:00 59.70571 17.97957 1301 ft 150 kts 188°
2026-05-07 19:00 59.69557 17.97587 1096 ft 147 kts 188°
2026-05-07 19:01 59.68553 17.97222 888 ft 147 kts 188°
2026-05-07 19:01 59.67550 17.96858 686 ft 147 kts 188°
2026-05-07 19:01 59.66560 17.96498 490 ft 147 kts 188°
2026-05-07 19:01 59.65558 17.96136 298 ft 146 kts 188°
2026-05-07 19:02 59.64564 17.95774 128 ft 144 kts 188°
2026-05-07 19:02 59.63715 17.95481 116 ft 83 kts 191°
2026-05-07 19:02 59.63361 17.95232 121 ft 46 kts 215°
2026-05-07 19:02 59.63256 17.94960 124 ft 21 kts 301°
2026-05-07 19:03 59.63420 17.94948 120 ft 32 kts 10°
2026-05-07 19:03 59.63670 17.95041 112 ft 38 kts 10°
2026-05-07 19:03 59.63935 17.95139 109 ft 39 kts 11°
2026-05-07 19:03 59.64204 17.95237 107 ft 39 kts 10°
2026-05-07 19:04 59.64474 17.95334 105 ft 39 kts 11°
2026-05-07 19:04 59.64743 17.95436 106 ft 39 kts 10°
2026-05-07 19:04 59.65005 17.95511 113 ft 37 kts 359°
2026-05-07 19:04 59.65244 17.95409 122 ft 34 kts 345°
2026-05-07 19:05 59.65467 17.95293 126 ft 33 kts 344°
2026-05-07 19:05 59.65682 17.95175 126 ft 20 kts 345°
2026-05-07 19:05 59.65740 17.94949 125 ft 23 kts 258°
2026-05-07 19:05 59.65694 17.94594 125 ft 29 kts 255°
2026-05-07 19:06 59.65640 17.94170 120 ft 35 kts 255°
2026-05-07 19:06 59.65546 17.93448 112 ft 0 kts 256°
2026-05-07 19:07 59.65522 17.93377 112 ft 11 kts 212°
2026-05-07 19:07 59.65468 17.93430 112 ft 10 kts 92°